[[[{"header":{"parameterUnit":"kt","parameterCategory":2,"dx":1,"dy":1,"la1":30.253999710083008,"la2":30.299108505249023,"lo1":-89.0895004272461,"lo2":-89.04439544677734,"nx":28,"ny":28,"refTime":"2022-10-12T21:00:00:Z","depth":"0","parameterNumber":2,"parameterNumberName":"U-component_of_CURRENTS"},"data":[0.7098,0.7108,0.723,0.7237,0.7324,0.7293,0.7351,0.7472,0.7751,0.814,0.8569,0.9029,0.9555,0.9902,0.9697,0.9615,0.8834,0.8645,0.8349,0.9234,0.93,0.9363,0.9115,0.872,0.8718,0.6722,0.6706,0.6694,0.7289,0.7368,0.7464,0.7595,0.7632,0.78,0.7964,0.8006,0.8191,0.862,0.8977,0.9743,1.0195,1.0594,1.0965,1.0703,1.028,1.0352,0.9578,0.9395,1.0775,1.058,1.049,1.049,1.0491,1.0491,1.0492,1.0492,0.7596,0.761,0.7754,0.7874,0.7982,0.8091,0.8135,0.8368,0.8583,0.8871,0.9286,0.9721,1.0392,1.1275,1.1378,1.1406,1.1315,1.1284,1.1129,1.0725,1.0271,1.1715,1.1991,1.1993,1.1995,1.1996,1.1997,0,0.7838,0.7935,0.8032,0.8171,0.8264,0.8406,0.8569,0.8653,0.8989,0.9206,0.9509,0.9797,1.0456,1.0885,1.1474,1.1754,1.1282,1.1876,1.1372,1.0843,1.0264,0.9978,1.1413,1.1717,1.1717,1.1717,1.1718,1.1718,0.8075,0.8127,0.839,0.8445,0.855,0.8682,0.8776,0.9073,0.9183,0.9554,0.9608,0.9989,1.0294,1.0923,1.1315,1.1793,1.1331,1.1864,1.1777,1.124,1.1041,1.0567,1.0302,1.1722,1.1722,1.1721,1.1721,0,0.8178,0.8389,0.851,0.8776,0.8845,0.8886,0.9146,0.9227,0.9462,0.9622,0.9685,1.0047,1.0383,1.0698,1.1091,1.1294,1.1305,1.1701,1.1471,1.1471,1.1216,1.1016,1.0708,1.0413,1.2058,1.2061,1.2063,0,0.8423,0.8492,0.8774,0.8823,0.8928,0.9142,0.9258,0.9407,0.9639,0.9755,0.9998,1.0123,1.0436,1.0675,1.0889,1.1227,1.1256,1.1402,1.1433,1.125,1.1232,1.0821,1.0602,1.1435,1.1432,1.1429,1.1427,0,0.8472,0.874,0.8862,0.8941,0.9209,0.9276,0.9398,0.9608,0.9716,0.9933,1.0008,1.0277,1.0366,1.0621,1.0813,1.0768,1.1159,1.1119,1.1305,1.1307,1.1205,1.1187,1.1005,1.1423,1.1422,1.1421,1.142,0,0.8647,0.8786,0.8953,0.917,0.9225,0.9316,0.9496,0.9625,0.9843,0.9922,1.0079,1.0161,1.0365,1.0321,1.0671,1.0539,1.0697,1.0778,1.0794,1.0776,1.0696,1.0837,1.1096,1.06,1.0925,1.0921,1.0916,0,0.8632,0.883,0.8981,0.9131,0.9235,0.9385,0.951,0.9653,0.9756,0.9882,0.999,1.0087,1.0109,1.0129,1.0266,1.0381,1.0541,1.0343,1.0607,1.0616,1.0599,1.0863,1.0696,1.1019,1.0855,1.0861,1.0866,0,0.8601,0.8891,0.8901,0.8988,0.9206,0.9273,0.9429,0.959,0.9662,0.9773,0.9882,1.0007,1.004,1.0069,1.0095,1.0186,1.0439,1.016,1.0164,1.0302,1.0767,1.0775,1.0818,1.0426,1.0433,1.0438,1.0817,0,0.8716,0.8825,0.8881,0.9056,0.9152,0.9254,0.939,0.9473,0.9522,0.9594,0.9736,0.9787,0.9867,0.989,0.9882,1.0062,1.0064,1.0015,0.9921,1.0069,1.0214,1.0253,0.9753,0.9751,0.9749,0.9747,0,0,0.8629,0.8764,0.8866,0.8975,0.9058,0.9154,0.9253,0.9329,0.945,0.9501,0.9468,0.9619,0.9636,0.9763,0.9808,0.9811,0.9883,0.9732,0.9978,1.0004,1.0028,1.0174,1.0213,0.9743,0.9742,0.9742,0.9741,0,0.8667,0.8749,0.883,0.8928,0.9071,0.9137,0.9178,0.9295,0.9338,0.9434,0.9452,0.9529,0.9563,0.9612,0.963,0.9771,0.9761,0.9764,0.9819,0.9955,0.9984,1.0009,1.0158,1.0195,0.9736,0.9736,0.9736,0,0.8657,0.8753,0.8794,0.8949,0.9019,0.9121,0.9122,0.9217,0.9292,0.9257,0.9345,0.938,0.9394,0.9471,0.9501,0.9438,0.9645,0.9524,0.9536,0.9539,0.9676,0.9708,0.9737,0.9366,0.9365,0.9364,0,0,0.8679,0.876,0.8894,0.8961,0.9018,0.91,0.9151,0.9186,0.9246,0.9264,0.928,0.9298,0.9353,0.9355,0.9398,0.9449,0.9496,0.9481,0.9498,0.9513,0.9524,0.9663,0.9694,0.936,0.936,0.936,0,0,0.8672,0.8822,0.8853,0.894,0.9041,0.9127,0.9168,0.9199,0.9246,0.9236,0.9221,0.9223,0.9314,0.9279,0.9233,0.9343,0.9269,0.9279,0.9354,0.9375,0.9392,0.9398,0.9143,0,0,0,0,0,0.8765,0.8814,0.8842,0.8871,0.9008,0.9125,0.9141,0.9174,0.916,0.9198,0.9217,0.916,0.9254,0.9212,0.9216,0.9263,0.9309,0.9318,0.9327,0.944,0.9463,0.9482,0,0,0,0,0,0,0.8777,0.881,0.8842,0.8932,0.8965,0.9121,0.9081,0.909,0.9156,0.9154,0.9163,0.916,0.9134,0.9207,0.921,0.9256,0.9142,0.9313,0.932,0.9327,0.9448,0.9467,0.9483,0,0,0,0,0,0.8787,0.8813,0.9024,0.893,0.8959,0.9029,0.9078,0.9085,0.9127,0.9131,0.913,0.9156,0.9135,0.9138,0.9208,0.9256,0.9139,0.914,0.9318,0.9324,0.9329,0.9457,0,0,0,0,0,0,0.8794,0.8798,0.903,0.9041,0.8911,0.9021,0.9037,0.9081,0.9097,0.9102,0.9119,0.9116,0.9137,0.9138,0.914,0.9259,0.9136,0.9138,0.9139,0.9322,0.9327,0.9331,0,0,0,0,0,0,0.8786,0.8806,0.9035,0.9009,0.9015,0.9013,0.9028,0.9052,0.9094,0.9079,0.9081,0.9117,0.912,0.9139,0.914,0.9178,0.9134,0.9136,0.9137,0.9138,0.9326,0.933,0,0,0,0,0,0,0.8795,0.8812,0.9005,0.901,0.9016,0.9123,0.903,0.915,0.9129,0.9074,0.9125,0.9122,0.912,0.9122,0.9141,0.9178,0.9178,0.9134,0.9136,0.9136,0.9137,0,0,0,0,0,0,0,0.8802,0.8676,0.8985,0.9012,0.9017,0.9139,0.914,0.9141,0.9129,0.9127,0.9125,0.9123,0.9125,0.9127,0.9129,0.9178,0,0,0.9134,0.9135,0,0,0,0,0,0,0,0,0.867,0.8675,0.8986,0.8989,0.8992,0.9139,0.914,0.9141,0.9129,0.9127,0.9125,0.9124,0.9126,0.9127,0.9129,0,0,0,0,0,0,0,0,0,0,0,0,0,0,0,0.8986,0.8989,0,0.9139,0.914,0.9141,0.9128,0.9127,0.9126,0.9125,0.9126,0.9127,0.9128,0,0,0,0,0,0,0,0,0,0,0,0,0,0,0,0,0,0,0,0,0,0,0,0,0,0,0,0,0,0,0,0,0,0,0,0,0,0,0,0,0,0,0,0,0,0,0,0,0,0,0,0,0,0,0,0,0,0,0,0,0,0,0,0,0,0,0,0,0]}],[{"header":{"parameterUnit":"kt","parameterCategory":2,"dx":1,"dy":1,"la1":30.253999710083008,"la2":30.299108505249023,"lo1":-89.0895004272461,"lo2":-89.04439544677734,"nx":28,"ny":28,"refTime":"2022-10-12T21:00:00:Z","depth":"0","parameterNumber":3,"parameterNumberName":"V-component_of_CURRENTS"},"data":[0.0099,0.0284,0.0366,0.0742,0.0911,0.1279,0.1486,0.1887,0.231,0.3167,0.3791,0.4136,0.3738,0.0974,-0.107,-0.1677,-0.248,-0.2569,-0.3115,-0.245,-0.2403,-0.2358,-0.2489,-0.2836,-0.2839,-0.3921,-0.3933,-0.3942,0.0008,0.0118,0.027,0.0493,0.0706,0.0724,0.1,0.1265,0.1661,0.2101,0.2378,0.2791,0.2131,0.1334,0.0171,-0.0824,-0.1251,-0.142,-0.1647,-0.1807,-0.0752,-0.0811,-0.0806,-0.0805,-0.0805,-0.0804,-0.0804,-0.0803,-0.0131,-0.0035,0.0095,0.0253,0.0396,0.0588,0.0779,0.0941,0.12,0.1581,0.1501,0.1902,0.1561,0.1084,0.0451,-0.0428,-0.0519,-0.0637,-0.0956,-0.1083,-0.1366,-0.0224,-0.0099,-0.0101,-0.0104,-0.0105,-0.0107,0,-0.0233,-0.0189,-0.009,0.0067,0.0188,0.0322,0.0462,0.0584,0.0683,0.0848,0.1035,0.1115,0.0892,0.0793,0.0394,0.0119,-0.0603,-0.0238,-0.0775,-0.0978,-0.1156,-0.1421,-0.0326,-0.0112,-0.0115,-0.0117,-0.0118,-0.0119,-0.0357,-0.0288,-0.0169,-0.0087,-0.0043,0.0081,0.0182,0.0236,0.0345,0.048,0.0578,0.0579,0.0639,0.04,0.0065,-0.0177,-0.0637,-0.028,-0.0407,-0.0903,-0.1284,-0.1466,-0.1659,-0.0146,-0.0142,-0.014,-0.0137,0,-0.0414,-0.0395,-0.0282,-0.0206,-0.017,-0.0072,0.0038,0.0141,0.0177,0.0327,0.0357,0.0325,0.0277,0.0068,-0.009,-0.0308,-0.0665,-0.0525,-0.0331,-0.0361,-0.0946,-0.1255,-0.1448,-0.1674,-0.0567,-0.0567,-0.0567,0,-0.0521,-0.0444,-0.0408,-0.0355,-0.0223,-0.0233,-0.0095,-0.0074,-0.0009,0.01,0.0,0.0076,-0.0129,-0.0181,-0.037,-0.0506,-0.0455,-0.0705,-0.0754,-0.0615,-0.061,-0.1097,-0.142,-0.0687,-0.0688,-0.0689,-0.069,0,-0.0626,-0.0561,-0.0471,-0.0454,-0.0409,-0.0353,-0.0325,-0.03,-0.0245,-0.0205,-0.0158,-0.0204,-0.0207,-0.0317,-0.0512,-0.0581,-0.0566,-0.0693,-0.0798,-0.0802,-0.0719,-0.0722,-0.0938,-0.0691,-0.0691,-0.0692,-0.0692,0,-0.0732,-0.0695,-0.06,-0.0536,-0.0521,-0.0485,-0.0415,-0.0393,-0.0383,-0.0399,-0.0411,-0.0498,-0.049,-0.0644,-0.0696,-0.0736,-0.0827,-0.0904,-0.0904,-0.1036,-0.1181,-0.0884,-0.0657,-0.1147,-0.0946,-0.0948,-0.095,0,-0.0818,-0.0749,-0.0777,-0.0695,-0.066,-0.0713,-0.0671,-0.0684,-0.0711,-0.0684,-0.0766,-0.0774,-0.0928,-0.0932,-0.094,-0.1047,-0.1006,-0.108,-0.1169,-0.117,-0.1185,-0.1002,-0.0828,-0.0698,-0.0977,-0.0974,-0.0972,0,-0.0901,-0.0904,-0.0895,-0.0866,-0.0906,-0.0902,-0.0877,-0.088,-0.0837,-0.093,-0.087,-0.0979,-0.1043,-0.11,-0.12,-0.1187,-0.1056,-0.13,-0.1307,-0.1205,-0.0993,-0.1036,-0.1022,-0.1133,-0.1129,-0.1127,-0.0994,0,-0.0986,-0.0972,-0.0956,-0.0972,-0.0984,-0.0974,-0.1035,-0.1049,-0.1105,-0.1155,-0.1171,-0.1297,-0.1368,-0.1399,-0.1489,-0.1415,-0.1457,-0.156,-0.1623,-0.1502,-0.1467,-0.1449,-0.1741,-0.1746,-0.175,-0.1754,0,0,-0.1059,-0.1051,-0.1122,-0.1109,-0.1113,-0.1219,-0.119,-0.1234,-0.1341,-0.1343,-0.1409,-0.1547,-0.1653,-0.1642,-0.1615,-0.1698,-0.1704,-0.1697,-0.1587,-0.1567,-0.155,-0.1508,-0.1485,-0.1761,-0.1763,-0.1764,-0.1766,0,-0.1102,-0.1141,-0.1123,-0.1153,-0.121,-0.1263,-0.126,-0.1355,-0.1383,-0.1433,-0.1539,-0.1586,-0.1731,-0.1773,-0.182,-0.1755,-0.183,-0.1799,-0.1632,-0.1623,-0.1598,-0.1577,-0.1529,-0.1505,-0.1776,-0.1775,-0.1775,0,-0.1171,-0.1212,-0.1216,-0.1273,-0.1324,-0.133,-0.1424,-0.1452,-0.145,-0.1621,-0.1653,-0.1751,-0.1879,-0.1906,-0.1934,-0.1976,-0.1928,-0.1995,-0.1977,-0.1963,-0.1961,-0.1933,-0.1907,-0.222,-0.2221,-0.2221,0,0,-0.1204,-0.1208,-0.1292,-0.1292,-0.1311,-0.1406,-0.1436,-0.1486,-0.1568,-0.1602,-0.1703,-0.1808,-0.1879,-0.1918,-0.2016,-0.2049,-0.2082,-0.2036,-0.2015,-0.1997,-0.1973,-0.1966,-0.194,-0.2222,-0.2222,-0.2222,0,0,-0.1226,-0.1302,-0.1339,-0.1343,-0.1396,-0.15,-0.1503,-0.1561,-0.1637,-0.1648,-0.1782,-0.1814,-0.1859,-0.1961,-0.1957,-0.2012,-0.2116,-0.212,-0.19,-0.1876,-0.1856,-0.1796,-0.2059,0,0,0,0,0,-0.1311,-0.129,-0.1322,-0.1335,-0.1435,-0.1484,-0.1501,-0.1575,-0.1613,-0.1609,-0.1708,-0.1784,-0.1979,-0.1978,-0.201,-0.1952,-0.2233,-0.2231,-0.2229,-0.1959,-0.1933,-0.191,0,0,0,0,0,0,-0.1317,-0.133,-0.1324,-0.1422,-0.1446,-0.1486,-0.1557,-0.1579,-0.1614,-0.1622,-0.1763,-0.1789,-0.188,-0.197,-0.1997,-0.1939,-0.205,-0.2232,-0.2231,-0.2229,-0.195,-0.1928,-0.191,0,0,0,0,0,-0.1321,-0.1333,-0.1463,-0.1425,-0.1445,-0.1542,-0.1557,-0.1576,-0.1607,-0.1745,-0.1771,-0.1655,-0.1877,-0.1907,-0.1987,-0.1922,-0.2033,-0.2042,-0.2231,-0.223,-0.2229,-0.194,0,0,0,0,0,0,-0.1325,-0.1365,-0.1471,-0.1481,-0.142,-0.1542,-0.1559,-0.1572,-0.1731,-0.1754,-0.1645,-0.165,-0.1876,-0.19,-0.1922,-0.1907,-0.2018,-0.2028,-0.2034,-0.223,-0.2229,-0.2228,0,0,0,0,0,0,-0.136,-0.1373,-0.1476,-0.1466,-0.1477,-0.154,-0.1555,-0.1654,-0.1734,-0.1624,-0.1631,-0.1645,-0.1855,-0.1894,-0.1912,-0.2062,-0.2007,-0.2017,-0.2023,-0.2027,-0.2229,-0.2229,0,0,0,0,0,0,-0.1368,-0.138,-0.1464,-0.1472,-0.1482,-0.1611,-0.1632,-0.174,-0.1692,-0.1617,-0.1693,-0.1693,-0.1849,-0.1868,-0.1905,-0.2047,-0.2058,-0.2008,-0.2014,-0.2018,-0.2021,0,0,0,0,0,0,0,-0.1374,-0.1266,-0.1402,-0.1477,-0.1486,-0.158,-0.1583,-0.1587,-0.1692,-0.1692,-0.1693,-0.1693,-0.1954,-0.1965,-0.1975,-0.2034,0,0,-0.2007,-0.2011,0,0,0,0,0,0,0,0,-0.1264,-0.1266,-0.1402,-0.1404,-0.1406,-0.158,-0.1583,-0.1586,-0.1692,-0.1692,-0.1693,-0.1693,-0.1957,-0.1965,-0.1974,0,0,0,0,0,0,0,0,0,0,0,0,0,0,0,-0.1402,-0.1404,0,-0.1581,-0.1583,-0.1585,-0.1692,-0.1692,-0.1692,-0.1693,-0.1959,-0.1966,-0.1973,0,0,0,0,0,0,0,0,0,0,0,0,0,0,0,0,0,0,0,0,0,0,0,0,0,0,0,0,0,0,0,0,0,0,0,0,0,0,0,0,0,0,0,0,0,0,0,0,0,0,0,0,0,0,0,0,0,0,0,0,0,0,0,0,0,0,0,0,0]}]],[[{"header":{"parameterUnit":"kt","parameterCategory":2,"dx":1,"dy":1,"la1":30.253999710083008,"la2":30.299108505249023,"lo1":-89.0895004272461,"lo2":-89.04439544677734,"nx":28,"ny":28,"refTime":"2022-10-12T21:00:00:Z","depth":"2","parameterNumber":2,"parameterNumberName":"U-component_of_CURRENTS"},"data":[0.4247,0.4212,0.4239,0.418,0.4283,0.4221,0.4214,0.4013,0.4044,0.3813,0.3849,0.4192,0.4611,0.4089,0.4137,0.4005,0.429,0.3882,0.5129,0.5157,0.5227,0.5492,0.5071,0,0,0,0,0,0.4341,0.4385,0.4456,0.4535,0.4548,0.4766,0.4868,0.4743,0.4653,0.4912,0.4934,0.4622,0.4584,0.4831,0.477,0.481,0.4788,0.4643,0.4593,0.4683,0.4763,0.442,0.3884,0.3878,0.3873,0.3867,0,0,0.4508,0.4523,0.4605,0.4703,0.4842,0.4943,0.4976,0.5126,0.5254,0.5395,0.5717,0.5695,0.5912,0.5734,0.5648,0.569,0.6046,0.5829,0.5859,0.5899,0.5618,0.5521,0.5397,0.5402,0.5407,0.5411,0.5414,0,0.4598,0.467,0.4727,0.4845,0.4976,0.5131,0.5354,0.5448,0.5857,0.6026,0.6214,0.6315,0.6576,0.6384,0.6497,0.6426,0.6572,0.6415,0.7153,0.5987,0.5908,0.5854,0.5866,0.5893,0.5902,0.5908,0.5913,0.5916,0.4693,0.4731,0.4894,0.4953,0.5036,0.5243,0.5363,0.5699,0.5852,0.6328,0.6411,0.6774,0.6831,0.7009,0.6986,0.7029,0.7097,0.6621,0.6308,0.6865,0.6814,0.6792,0.6769,0.6008,0.5996,0.5986,0.5979,0,0.4726,0.4819,0.4899,0.5053,0.5123,0.5237,0.5544,0.5669,0.599,0.6278,0.6439,0.674,0.6955,0.7091,0.7272,0.7154,0.7176,0.7116,0.6717,0.6624,0.6818,0.6788,0.7028,0.7022,0.7016,0.7012,0.7008,0,0.4785,0.4849,0.4985,0.5007,0.5136,0.5275,0.5484,0.5636,0.5914,0.6099,0.6343,0.6537,0.6785,0.6938,0.695,0.6976,0.715,0.6813,0.6782,0.6406,0.6351,0.6792,0.6758,0.7054,0.7051,0.7048,0.7045,0,0.478,0.4896,0.4993,0.5014,0.5143,0.5239,0.5369,0.5541,0.5682,0.6018,0.6177,0.6425,0.6667,0.6738,0.6828,0.6755,0.7032,0.6904,0.6721,0.6709,0.636,0.6302,0.7042,0.7041,0.704,0.7039,0.7038,0,0.48,0.4853,0.4956,0.5079,0.5105,0.5187,0.5363,0.5484,0.5657,0.5796,0.6012,0.6138,0.6371,0.6306,0.6553,0.6464,0.6516,0.654,0.6552,0.6264,0.6122,0.6062,0.6166,0.6673,0.6668,0.6664,0.666,0,0.4779,0.4857,0.4901,0.5007,0.5041,0.5115,0.5208,0.531,0.5443,0.5583,0.5719,0.5934,0.5916,0.6089,0.6124,0.6226,0.6316,0.6136,0.6325,0.6333,0.6089,0.6251,0.5827,0.6122,0.6605,0.6611,0.6615,0,0.4725,0.4799,0.4814,0.4865,0.4957,0.4995,0.511,0.5208,0.5308,0.5425,0.5591,0.5752,0.5837,0.5898,0.5956,0.6,0.6227,0.5985,0.5984,0.6166,0.6482,0.6213,0.6225,0.6159,0.6164,0.6168,0.6572,0,0.4689,0.4746,0.477,0.4841,0.4898,0.4956,0.5014,0.508,0.5181,0.5237,0.5431,0.5525,0.5662,0.5671,0.5708,0.5862,0.5904,0.5794,0.572,0.5839,0.6001,0.6036,0.558,0.5577,0.5575,0.5573,0,0,0.4645,0.468,0.4703,0.4739,0.4787,0.4847,0.4911,0.4974,0.5074,0.5127,0.5166,0.538,0.5402,0.5563,0.5627,0.56,0.5684,0.561,0.576,0.5781,0.58,0.5961,0.5997,0.5568,0.5567,0.5566,0.5566,0,0.4596,0.4619,0.4674,0.4697,0.4783,0.4821,0.485,0.4914,0.4992,0.5106,0.5165,0.5265,0.5348,0.5404,0.5451,0.5562,0.5587,0.5575,0.5677,0.5736,0.576,0.5782,0.5945,0.5979,0.556,0.556,0.556,0,0.4541,0.4573,0.4602,0.4648,0.4706,0.4747,0.4778,0.487,0.4946,0.4972,0.5087,0.5154,0.5209,0.5307,0.5348,0.5296,0.549,0.5381,0.5393,0.5427,0.5485,0.5512,0.5537,0.5227,0.5227,0.5226,0,0,0.4521,0.4567,0.459,0.4638,0.4653,0.4736,0.4788,0.4855,0.4929,0.4986,0.5023,0.5087,0.5176,0.5205,0.5256,0.5306,0.5342,0.5346,0.5362,0.5375,0.5416,0.5476,0.5502,0.5224,0.5224,0.5224,0,0,0.4511,0.4545,0.4584,0.4611,0.467,0.4729,0.4795,0.4848,0.4958,0.5007,0.5033,0.505,0.5166,0.5136,0.5108,0.5231,0.5158,0.5165,0.5268,0.5287,0.5302,0.535,0.5077,0,0,0,0,0,0.4511,0.4525,0.4559,0.4571,0.4654,0.4699,0.4721,0.4821,0.4877,0.4926,0.5013,0.4996,0.5137,0.5113,0.5118,0.5184,0.5195,0.52,0.5205,0.5352,0.5372,0.5389,0,0,0,0,0,0,0.4515,0.4522,0.456,0.4604,0.4625,0.4698,0.4748,0.4776,0.4875,0.4893,0.4984,0.4995,0.501,0.5108,0.5114,0.5178,0.5075,0.5197,0.5201,0.5205,0.5359,0.5375,0.539,0,0,0,0,0,0.4519,0.4525,0.4624,0.4608,0.4626,0.4751,0.475,0.4774,0.4878,0.4908,0.4928,0.4958,0.5007,0.5017,0.5111,0.5176,0.5072,0.5074,0.52,0.5203,0.5206,0.5367,0,0,0,0,0,0,0.4521,0.4567,0.4632,0.4644,0.4624,0.4754,0.4773,0.4772,0.489,0.491,0.4873,0.4883,0.5005,0.5013,0.502,0.5179,0.5069,0.5071,0.5072,0.5202,0.5205,0.5207,0,0,0,0,0,0,0.4565,0.4575,0.4638,0.4652,0.4667,0.4756,0.4772,0.4784,0.4888,0.485,0.4862,0.4876,0.4971,0.501,0.5016,0.5033,0.5066,0.5068,0.507,0.507,0.5205,0.5207,0,0,0,0,0,0,0.4572,0.4582,0.465,0.4661,0.4674,0.4817,0.4768,0.484,0.4933,0.4842,0.4939,0.4942,0.4964,0.4974,0.5012,0.5026,0.5031,0.5066,0.5068,0.5069,0.5069,0,0,0,0,0,0,0,0.4578,0.4476,0.4556,0.4669,0.468,0.475,0.4753,0.4757,0.4933,0.4936,0.4938,0.4941,0.5055,0.5057,0.5059,0.5021,0,0,0.5066,0.5067,0,0,0,0,0,0,0,0,0.4476,0.4476,0.4557,0.4559,0.4561,0.475,0.4753,0.4756,0.4934,0.4936,0.4938,0.494,0.5056,0.5057,0.5059,0,0,0,0,0,0,0,0,0,0,0,0,0,0,0,0.4557,0.4559,0,0.4751,0.4753,0.4756,0.4934,0.4936,0.4937,0.4939,0.5056,0.5057,0.5059,0,0,0,0,0,0,0,0,0,0,0,0,0,0,0,0,0,0,0,0,0,0,0,0,0,0,0,0,0,0,0,0,0,0,0,0,0,0,0,0,0,0,0,0,0,0,0,0,0,0,0,0,0,0,0,0,0,0,0,0,0,0,0,0,0,0,0,0,0]}],[{"header":{"parameterUnit":"kt","parameterCategory":2,"dx":1,"dy":1,"la1":30.253999710083008,"la2":30.299108505249023,"lo1":-89.0895004272461,"lo2":-89.04439544677734,"nx":28,"ny":28,"refTime":"2022-10-12T21:00:00:Z","depth":"2","parameterNumber":3,"parameterNumberName":"V-component_of_CURRENTS"},"data":[0.1887,0.2097,0.2207,0.2664,0.2899,0.3289,0.3517,0.3671,0.3728,0.3581,0.3378,0.2982,0.1986,0.1156,0.0233,-0.0373,-0.0423,-0.0442,-0.0376,-0.0077,-0.0058,-0.07,-0.0651,0,0,0,0,0,0.1811,0.1951,0.2167,0.2456,0.2733,0.284,0.3216,0.3362,0.3608,0.3614,0.3526,0.2705,0.1813,0.0962,-0.0163,-0.0862,-0.084,-0.1021,-0.0872,-0.086,-0.0849,-0.083,-0.0966,-0.0968,-0.097,-0.0971,0,0,0.1684,0.1804,0.1962,0.2183,0.2419,0.2716,0.293,0.3121,0.3359,0.3466,0.3337,0.3028,0.2253,0.0889,0.0133,-0.059,-0.0606,-0.0869,-0.0859,-0.0849,-0.0835,-0.077,-0.0969,-0.097,-0.0971,-0.0971,-0.0972,0,0.1574,0.1619,0.1738,0.197,0.2145,0.2374,0.2588,0.276,0.291,0.2991,0.3049,0.2864,0.2104,0.1316,0.0346,-0.0121,-0.0476,-0.0629,-0.0561,-0.0581,-0.0501,-0.0565,-0.0552,-0.0659,-0.0658,-0.0657,-0.0657,-0.0656,0.1422,0.1505,0.1665,0.1778,0.1826,0.1999,0.2138,0.2214,0.2377,0.2462,0.257,0.2294,0.2078,0.124,0.0521,-0.0216,-0.0307,-0.0579,-0.0714,-0.0614,-0.0684,-0.0669,-0.0655,-0.0647,-0.0648,-0.0649,-0.065,0,0.1348,0.1378,0.1524,0.1601,0.1645,0.1759,0.1925,0.204,0.2032,0.2213,0.222,0.1993,0.164,0.1129,0.0597,0.021,-0.0262,-0.044,-0.0272,-0.0343,-0.0638,-0.0629,-0.0783,-0.0788,-0.0792,-0.0795,-0.0798,0,0.123,0.132,0.1369,0.1433,0.1576,0.1547,0.1689,0.1675,0.1708,0.1852,0.1577,0.16,0.1131,0.0878,0.045,0.0002,0.0054,-0.0416,-0.0504,-0.0417,-0.0418,-0.0401,-0.04,-0.04,-0.04,-0.0399,-0.0398,0,0.1095,0.1193,0.1297,0.1318,0.136,0.1391,0.1418,0.1377,0.1447,0.1375,0.1397,0.115,0.1095,0.0732,0.0342,0.0293,-0.0028,-0.0151,-0.0451,-0.0457,-0.0467,-0.0473,-0.0397,-0.0397,-0.0397,-0.0396,-0.0396,0,0.0972,0.1032,0.1155,0.1211,0.1228,0.1262,0.1275,0.1295,0.1214,0.1166,0.1055,0.0909,0.0745,0.0573,0.0236,0.0289,0.0054,-0.0134,-0.0144,-0.0279,-0.039,-0.0407,-0.0402,-0.0281,-0.0279,-0.0278,-0.0277,0,0.0845,0.0959,0.0928,0.1027,0.1086,0.1002,0.1021,0.0977,0.0913,0.0891,0.0688,0.0638,0.0453,0.0409,0.0257,0.0047,-0.0064,-0.0001,-0.0271,-0.0277,-0.0363,-0.0361,-0.0284,-0.0379,-0.0261,-0.0263,-0.0264,0,0.0736,0.076,0.0768,0.0803,0.0771,0.0792,0.079,0.0774,0.0787,0.0662,0.0662,0.0462,0.0368,0.0293,0.0152,0.0036,-0.0042,-0.0065,-0.0074,-0.01,-0.0233,-0.0327,-0.0346,-0.0144,-0.0145,-0.0147,-0.0252,0,0.064,0.0662,0.0687,0.0693,0.0684,0.0711,0.0656,0.0634,0.0557,0.0501,0.0415,0.0252,0.0153,0.0077,-0.0011,-0.0078,-0.0104,-0.0189,-0.0245,-0.0206,-0.0255,-0.0264,-0.0191,-0.0193,-0.0195,-0.0197,0,0,0.0532,0.057,0.05,0.0538,0.054,0.0434,0.0486,0.0437,0.0366,0.0345,0.0278,0.0101,-0.0019,-0.0098,-0.0101,-0.0158,-0.021,-0.0159,-0.0214,-0.0215,-0.0217,-0.0262,-0.0268,-0.02,-0.0201,-0.0202,-0.0202,0,0.0505,0.0461,0.0492,0.0479,0.044,0.0399,0.0404,0.0346,0.03,0.0268,0.0147,0.0051,-0.0052,-0.0147,-0.0211,-0.0179,-0.0286,-0.0211,-0.0116,-0.0227,-0.0226,-0.0225,-0.0268,-0.0273,-0.0207,-0.0207,-0.0207,0,0.0432,0.0407,0.0404,0.0383,0.0339,0.0358,0.0259,0.024,0.0241,0.0089,0.0058,-0.0048,-0.0169,-0.022,-0.0253,-0.028,-0.0346,-0.0327,-0.0319,-0.029,-0.0408,-0.0406,-0.0403,-0.0439,-0.0439,-0.044,0,0,0.041,0.0407,0.0367,0.0374,0.0365,0.0283,0.0258,0.0205,0.014,0.01,0.0015,-0.0085,-0.0169,-0.0215,-0.029,-0.0326,-0.0388,-0.0351,-0.034,-0.033,-0.0297,-0.0411,-0.0408,-0.0441,-0.0441,-0.0441,0,0,0.0394,0.0353,0.0309,0.0327,0.0292,0.0221,0.0206,0.015,0.0073,0.0044,-0.0078,-0.0108,-0.0167,-0.0233,-0.0232,-0.0323,-0.0374,-0.0376,-0.0276,-0.0264,-0.0253,-0.0195,-0.0347,0,0,0,0,0,0.0335,0.0368,0.0329,0.0324,0.0259,0.0247,0.0231,0.0139,0.0079,0.0078,-0.0018,-0.0101,-0.0258,-0.026,-0.0284,-0.0296,-0.0455,-0.0453,-0.045,-0.0332,-0.0318,-0.0306,0,0,0,0,0,0,0.0333,0.033,0.0328,0.0267,0.0251,0.0245,0.0149,0.0123,0.0077,0.0062,-0.0079,-0.0104,-0.019,-0.0256,-0.0276,-0.0285,-0.0341,-0.0454,-0.0452,-0.045,-0.0327,-0.0316,-0.0306,0,0,0,0,0,0.0331,0.0328,0.0257,0.0263,0.0249,0.0141,0.0146,0.0124,0.0074,-0.0046,-0.0074,0.0007,-0.0186,-0.0211,-0.0269,-0.0274,-0.0328,-0.0335,-0.0453,-0.0451,-0.045,-0.0322,0,0,0,0,0,0,0.0329,0.0287,0.025,0.0241,0.0246,0.0138,0.0121,0.0125,-0.0035,-0.006,0.0035,0.0026,-0.0183,-0.0203,-0.0221,-0.0264,-0.0318,-0.0325,-0.0329,-0.0451,-0.045,-0.0449,0,0,0,0,0,0,0.0288,0.028,0.0245,0.0228,0.0216,0.0135,0.0121,0.006,-0.0037,0.0052,0.0041,0.0033,-0.0164,-0.0197,-0.0212,-0.0304,-0.031,-0.0317,-0.0321,-0.0324,-0.045,-0.0449,0,0,0,0,0,0,0.0282,0.0275,0.023,0.022,0.0208,0.0089,0.0075,0.0003,-0.0019,0.0059,-0.0026,-0.0029,-0.0156,-0.0173,-0.0205,-0.0289,-0.03,-0.031,-0.0315,-0.0318,-0.032,0,0,0,0,0,0,0,0.0277,0.0358,0.0315,0.0213,0.0203,0.0155,0.0151,0.0148,-0.0019,-0.0022,-0.0025,-0.0028,-0.0272,-0.028,-0.0287,-0.0278,0,0,-0.031,-0.0313,0,0,0,0,0,0,0,0,0.0358,0.0358,0.0315,0.0313,0.0312,0.0154,0.0151,0.0149,-0.002,-0.0022,-0.0024,-0.0026,-0.0274,-0.028,-0.0286,0,0,0,0,0,0,0,0,0,0,0,0,0,0,0,0.0315,0.0313,0,0.0154,0.0151,0.0149,-0.002,-0.0022,-0.0024,-0.0026,-0.0276,-0.0281,-0.0286,0,0,0,0,0,0,0,0,0,0,0,0,0,0,0,0,0,0,0,0,0,0,0,0,0,0,0,0,0,0,0,0,0,0,0,0,0,0,0,0,0,0,0,0,0,0,0,0,0,0,0,0,0,0,0,0,0,0,0,0,0,0,0,0,0,0,0,0,0]}]],[[{"header":{"parameterUnit":"kt","parameterCategory":2,"dx":1,"dy":1,"la1":30.253999710083008,"la2":30.299108505249023,"lo1":-89.0895004272461,"lo2":-89.04439544677734,"nx":28,"ny":28,"refTime":"2022-10-12T21:00:00:Z","depth":"4","parameterNumber":2,"parameterNumberName":"U-component_of_CURRENTS"},"data":[0.1494,0.1567,0.1616,0.1623,0.1665,0.1811,0.1955,0.2191,0.2225,0.2574,0.2665,0.2957,0.3132,0.33,0.3343,0.339,0.3306,0.3813,0.3806,0.3791,0.3809,0.3824,0.3683,0,0,0,0,0,0.157,0.1589,0.1687,0.1809,0.195,0.2052,0.2298,0.2461,0.2789,0.2825,0.3024,0.3163,0.3321,0.3474,0.3416,0.37,0.3754,0.3617,0.3585,0.3802,0.3821,0.3678,0,0,0,0,0,0,0.1681,0.1713,0.1859,0.1987,0.2146,0.2235,0.2389,0.2555,0.2745,0.317,0.3217,0.3511,0.3765,0.3788,0.3844,0.3848,0.3762,0.361,0.3638,0.3658,0.3513,0.3381,0.3304,0,0,0,0,0,0.1779,0.1883,0.1985,0.2151,0.2299,0.245,0.2653,0.2743,0.308,0.3361,0.3528,0.365,0.3815,0.3896,0.3972,0.3961,0.4096,0.4051,0.4057,0.3903,0.3834,0.3807,0.3803,0.3893,0.3895,0.3897,0.3898,0,0.1898,0.1951,0.2201,0.2281,0.2396,0.259,0.2722,0.3027,0.3154,0.3553,0.3612,0.3893,0.4026,0.4036,0.4162,0.418,0.4127,0.4102,0.3938,0.3864,0.3834,0.3825,0.3815,0.3913,0.3912,0.3911,0.3909,0,0.1956,0.2099,0.2224,0.2457,0.2539,0.2643,0.2941,0.3063,0.3327,0.3537,0.3631,0.3902,0.4047,0.4162,0.4273,0.4163,0.4167,0.4126,0.4255,0.4235,0.3852,0.3835,0.3938,0.3933,0.3928,0.3924,0.3921,0,0.2082,0.2168,0.2375,0.2437,0.2578,0.2747,0.2929,0.308,0.3328,0.3482,0.3672,0.3805,0.396,0.408,0.4083,0.4078,0.422,0.3958,0.3937,0.4037,0.4021,0.3999,0.3977,0.418,0.4179,0.4178,0.4177,0,0.2114,0.2296,0.24,0.2469,0.2678,0.2777,0.2903,0.3113,0.3252,0.348,0.3607,0.3765,0.3888,0.3949,0.4015,0.397,0.4151,0.4078,0.3922,0.3908,0.3985,0.3965,0.4176,0.4176,0.4176,0.4175,0.4175,0,0.2203,0.2296,0.2423,0.26,0.265,0.2745,0.2955,0.3074,0.3277,0.3386,0.3539,0.3617,0.3761,0.3722,0.3875,0.3832,0.3854,0.3868,0.3872,0.3656,0.3569,0.3695,0.3878,0.3876,0.3873,0.3871,0.3869,0,0.22,0.2321,0.2411,0.2546,0.262,0.2752,0.2869,0.3002,0.3128,0.3269,0.3362,0.3494,0.3485,0.356,0.3625,0.3669,0.3735,0.3648,0.3725,0.3727,0.3538,0.3664,0.3712,0.3834,0.3839,0.3842,0.3844,0,0.2175,0.2343,0.2366,0.2435,0.2593,0.2651,0.2789,0.2918,0.302,0.314,0.3271,0.3378,0.3426,0.3456,0.3478,0.3538,0.3678,0.352,0.352,0.3558,0.3838,0.3645,0.3647,0.3693,0.3696,0.37,0.382,0,0.2231,0.2307,0.2351,0.2459,0.2535,0.2619,0.2716,0.2811,0.29,0.2964,0.3119,0.3162,0.3257,0.329,0.3281,0.342,0.3404,0.3374,0.3315,0.3429,0.3463,0.3482,0.3218,0.3215,0.3213,0.3211,0,0,0.2188,0.2252,0.2312,0.2381,0.2448,0.2526,0.2596,0.2667,0.2775,0.2836,0.2842,0.3011,0.3036,0.3145,0.3184,0.3195,0.3227,0.3202,0.3364,0.3381,0.3397,0.3436,0.3457,0.3208,0.3207,0.3206,0.3205,0,0.2183,0.2246,0.2286,0.2353,0.2452,0.2492,0.2533,0.2622,0.2679,0.2789,0.2797,0.2878,0.2978,0.3002,0.3027,0.3157,0.3158,0.3191,0.3274,0.3344,0.3364,0.3381,0.3424,0.3444,0.32,0.3201,0.3201,0,0.2164,0.221,0.2234,0.2315,0.2375,0.2439,0.2446,0.253,0.2596,0.2586,0.2708,0.2745,0.2772,0.2867,0.2917,0.2883,0.3081,0.3017,0.3028,0.3027,0.3095,0.3118,0.3139,0.2874,0.2873,0.2872,0,0,0.2161,0.2206,0.2265,0.2314,0.2353,0.242,0.2464,0.2494,0.2549,0.2582,0.263,0.268,0.2734,0.2776,0.2816,0.2915,0.2916,0.298,0.2996,0.3009,0.3015,0.3086,0.3108,0.2869,0.2869,0.2869,0,0,0.2148,0.2208,0.2234,0.2282,0.2346,0.2393,0.2446,0.2481,0.2549,0.2567,0.2579,0.259,0.2698,0.2698,0.2655,0.2815,0.2747,0.2757,0.2829,0.2848,0.2863,0.2857,0.2615,0,0,0,0,0,0.2171,0.22,0.2224,0.2239,0.2321,0.2387,0.2401,0.2438,0.2464,0.2504,0.2543,0.2537,0.2664,0.2626,0.2642,0.2731,0.283,0.2837,0.2843,0.2959,0.2979,0.2996,0,0,0,0,0,0,0.2177,0.2192,0.2223,0.2267,0.2287,0.2384,0.2366,0.2377,0.2459,0.2463,0.2529,0.2536,0.2525,0.2618,0.2633,0.2718,0.261,0.2832,0.2838,0.2844,0.2965,0.2982,0.2996,0,0,0,0,0,0.2181,0.2194,0.2312,0.2268,0.2285,0.2345,0.2365,0.2374,0.245,0.2464,0.2475,0.2482,0.2525,0.254,0.2627,0.2712,0.26,0.2605,0.2836,0.2841,0.2845,0.2974,0,0,0,0,0,0,0.2185,0.2204,0.2317,0.2324,0.2257,0.2342,0.2354,0.2372,0.2448,0.246,0.2411,0.2412,0.2525,0.2537,0.2548,0.271,0.2592,0.2598,0.2601,0.284,0.2844,0.2847,0,0,0,0,0,0,0.2198,0.221,0.232,0.2304,0.2311,0.2339,0.235,0.2408,0.2449,0.239,0.2393,0.241,0.2511,0.2534,0.2543,0.2633,0.2586,0.2591,0.2595,0.2597,0.2843,0.2846,0,0,0,0,0,0,0.2204,0.2214,0.2302,0.2307,0.2313,0.2401,0.2392,0.2475,0.2434,0.2386,0.2431,0.2431,0.2508,0.2518,0.254,0.2626,0.2631,0.2586,0.259,0.2592,0.2594,0,0,0,0,0,0,0,0.2209,0.2125,0.2273,0.2309,0.2314,0.2397,0.2398,0.24,0.2433,0.2432,0.2432,0.2431,0.2556,0.2562,0.2568,0.262,0,0,0.2586,0.2588,0,0,0,0,0,0,0,0,0.2122,0.2125,0.2274,0.2275,0.2277,0.2397,0.2398,0.24,0.2433,0.2433,0.2432,0.2431,0.2558,0.2562,0.2567,0,0,0,0,0,0,0,0,0,0,0,0,0,0,0,0.2274,0.2275,0,0.2397,0.2398,0.24,0.2433,0.2433,0.2432,0.2431,0.2559,0.2563,0.2567,0,0,0,0,0,0,0,0,0,0,0,0,0,0,0,0,0,0,0,0,0,0,0,0,0,0,0,0,0,0,0,0,0,0,0,0,0,0,0,0,0,0,0,0,0,0,0,0,0,0,0,0,0,0,0,0,0,0,0,0,0,0,0,0,0,0,0,0,0]}],[{"header":{"parameterUnit":"kt","parameterCategory":2,"dx":1,"dy":1,"la1":30.253999710083008,"la2":30.299108505249023,"lo1":-89.0895004272461,"lo2":-89.04439544677734,"nx":28,"ny":28,"refTime":"2022-10-12T21:00:00:Z","depth":"4","parameterNumber":3,"parameterNumberName":"V-component_of_CURRENTS"},"data":[0.0889,0.1015,0.1099,0.1292,0.1414,0.1597,0.1689,0.1714,0.168,0.1649,0.1356,0.1232,0.0678,0.0954,0.0135,0.002,-0.0117,-0.0724,-0.0731,-0.0923,-0.0918,-0.0913,-0.073,0,0,0,0,0,0.0883,0.0971,0.1101,0.1263,0.1413,0.1517,0.1643,0.1688,0.1719,0.1664,0.1615,0.1292,0.0743,0.0486,0.0131,-0.0036,-0.0506,-0.0464,-0.0616,-0.0919,-0.0914,-0.0737,0,0,0,0,0,0,0.0877,0.0941,0.1068,0.1203,0.1351,0.1488,0.1549,0.1603,0.1653,0.1588,0.1539,0.1162,0.0943,0.0396,0.0021,-0.0338,-0.0416,-0.0499,-0.0516,-0.0516,-0.0316,-0.0168,-0.0297,0,0,0,0,0,0.086,0.0919,0.0999,0.1159,0.1267,0.1395,0.1496,0.1549,0.157,0.1549,0.1425,0.1134,0.0777,0.0328,-0.0081,-0.0442,-0.0694,-0.082,-0.0819,-0.0747,-0.0677,-0.0704,-0.0681,-0.0893,-0.0892,-0.0891,-0.0891,0,0.0837,0.0889,0.1028,0.1098,0.1141,0.1239,0.1314,0.1343,0.1389,0.1325,0.1326,0.1057,0.0875,0.0306,-0.0065,-0.0582,-0.0635,-0.0804,-0.0726,-0.0665,-0.0699,-0.0676,-0.0654,-0.0887,-0.0887,-0.0887,-0.0888,0,0.0824,0.0871,0.0961,0.1038,0.1073,0.1127,0.1223,0.1261,0.1223,0.1238,0.1218,0.1007,0.07,0.0362,-0.0052,-0.024,-0.0558,-0.0667,-0.05,-0.0542,-0.0658,-0.0637,-0.0879,-0.0881,-0.0882,-0.0883,-0.0884,0,0.0802,0.0856,0.0926,0.0965,0.1046,0.1037,0.1102,0.1076,0.1057,0.1078,0.0915,0.087,0.0551,0.0321,0.0067,-0.0253,-0.0288,-0.0451,-0.051,-0.0368,-0.035,-0.043,-0.0417,-0.0518,-0.0516,-0.0514,-0.0512,0,0.0762,0.0826,0.0893,0.0907,0.0945,0.0967,0.0979,0.0936,0.0955,0.0859,0.0849,0.0661,0.0581,0.0335,0.0076,0.0095,-0.0267,-0.0277,-0.0435,-0.0436,-0.0413,-0.0403,-0.051,-0.051,-0.0509,-0.0508,-0.0507,0,0.0722,0.0765,0.0833,0.0881,0.089,0.0908,0.0908,0.0902,0.0826,0.0793,0.0708,0.0623,0.0488,0.0439,0.0141,0.0225,0.0052,-0.008,-0.0094,-0.0123,-0.0153,-0.0212,-0.0265,-0.0262,-0.0259,-0.0256,-0.0253,0,0.0683,0.0746,0.0743,0.0794,0.0825,0.0792,0.0793,0.0763,0.0723,0.0683,0.058,0.0535,0.0473,0.0447,0.0339,0.0185,0.007,0.02,-0.0122,-0.0132,-0.011,-0.016,0.0067,-0.0211,-0.0217,-0.022,-0.0223,0,0.0642,0.068,0.0685,0.0713,0.07,0.0705,0.0698,0.0677,0.0675,0.0611,0.0584,0.0499,0.0448,0.0404,0.0341,0.0247,0.0125,0.0188,0.018,0.0082,-0.0134,-0.0113,-0.0137,0.0083,0.008,0.0077,-0.0194,0,0.0618,0.0641,0.0654,0.0663,0.0658,0.0669,0.0636,0.0625,0.06,0.0563,0.0509,0.0432,0.0366,0.0341,0.0306,0.0229,0.0183,0.0161,0.0122,0.012,0.0001,-0.0021,0.0221,0.0219,0.0218,0.0217,0,0,0.0576,0.0601,0.058,0.0596,0.0598,0.0556,0.0575,0.0548,0.0506,0.0491,0.0477,0.0368,0.0316,0.0258,0.0265,0.0236,0.0154,0.0225,0.0137,0.0129,0.012,0.0008,-0.0012,0.0214,0.0214,0.0213,0.0213,0,0.0561,0.0558,0.0579,0.057,0.0557,0.0535,0.0539,0.0506,0.0491,0.0467,0.0417,0.0372,0.0305,0.0254,0.0219,0.0224,0.0126,0.021,0.0241,0.013,0.0123,0.0117,0.0006,-0.0011,0.021,0.021,0.021,0,0.0529,0.0524,0.0529,0.0518,0.0503,0.0504,0.0468,0.0464,0.046,0.0391,0.0375,0.0326,0.0256,0.0223,0.0203,0.0187,0.0088,0.0148,0.0153,0.0146,0.0027,0.0021,0.0015,0.0081,0.0081,0.0081,0,0,0.0517,0.0528,0.0502,0.0511,0.0508,0.0473,0.0463,0.0447,0.0415,0.0403,0.0358,0.0306,0.026,0.0234,0.0187,0.0151,0.007,0.0137,0.0143,0.0148,0.0144,0.0027,0.0022,0.0081,0.0081,0.0081,0,0,0.0505,0.049,0.048,0.0493,0.0473,0.0433,0.0437,0.0415,0.0386,0.0387,0.0323,0.0308,0.0276,0.023,0.0238,0.0174,0.0144,0.0141,0.0214,0.0221,0.0226,0.0236,0.0185,0,0,0,0,0,0.0475,0.0493,0.0484,0.0482,0.0456,0.0437,0.043,0.0407,0.0398,0.0401,0.0361,0.0322,0.0224,0.023,0.0213,0.021,0.008,0.008,0.008,0.0165,0.0173,0.0179,0,0,0,0,0,0,0.0474,0.0472,0.0483,0.0447,0.0441,0.0436,0.0412,0.0405,0.0398,0.0396,0.0331,0.0319,0.0275,0.0234,0.022,0.0218,0.019,0.008,0.008,0.008,0.0168,0.0174,0.0179,0,0,0,0,0,0.0473,0.0472,0.0443,0.0446,0.044,0.041,0.0413,0.0407,0.04,0.0334,0.0324,0.0387,0.0276,0.0261,0.0225,0.0226,0.0199,0.0194,0.008,0.008,0.008,0.0171,0,0,0,0,0,0,0.0472,0.0456,0.044,0.0436,0.0451,0.041,0.0405,0.0408,0.0338,0.0329,0.0386,0.0385,0.0277,0.0265,0.0254,0.0233,0.0207,0.0202,0.0199,0.008,0.008,0.008,0,0,0,0,0,0,0.0456,0.0453,0.0438,0.0446,0.0443,0.041,0.0406,0.0353,0.0336,0.0391,0.039,0.0386,0.0283,0.0267,0.0258,0.0176,0.0213,0.0208,0.0204,0.0202,0.008,0.008,0,0,0,0,0,0,0.0454,0.0451,0.0446,0.0444,0.0441,0.0395,0.0359,0.0327,0.0369,0.0394,0.0369,0.037,0.0285,0.0276,0.0262,0.0184,0.0178,0.0213,0.0209,0.0207,0.0205,0,0,0,0,0,0,0,0.0452,0.0484,0.0465,0.0443,0.044,0.0402,0.0401,0.0399,0.0369,0.0369,0.0369,0.037,0.0241,0.0235,0.023,0.019,0,0,0.0213,0.0211,0,0,0,0,0,0,0,0,0.0484,0.0484,0.0465,0.0465,0.0464,0.0402,0.0401,0.04,0.0369,0.0369,0.0369,0.0369,0.0239,0.0235,0.0231,0,0,0,0,0,0,0,0,0,0,0,0,0,0,0,0.0465,0.0465,0,0.0402,0.0401,0.04,0.0369,0.0369,0.0369,0.0369,0.0238,0.0235,0.0231,0,0,0,0,0,0,0,0,0,0,0,0,0,0,0,0,0,0,0,0,0,0,0,0,0,0,0,0,0,0,0,0,0,0,0,0,0,0,0,0,0,0,0,0,0,0,0,0,0,0,0,0,0,0,0,0,0,0,0,0,0,0,0,0,0,0,0,0,0]}]]]